RASSVET-3 6

导读

RASSVET-3 6(NORAD编号68365)是俄罗斯私营航天企业Buro 1440主导研发的黎明星座首批量产卫星之一,属于俄罗斯自主低轨卫星互联网项目(被称为“俄版星链”)。该卫星于2026年3月23日随15颗同型号卫星由联盟-2火箭在普列谢茨克发射场发射入轨,单星质量约370公斤,初始轨道近地点290公里、远地点324公里,倾角82.3度,后续将转移至800公里目标轨道。 卫星搭载5G NTN非地面网络通信系统与星间激光通信终端,定位军民两用,旨在构建俄罗斯自主可控的太空通信网,填补偏远地区通信盲区,同时为军事应用提供独立通信链路,摆脱对外国卫星系统的依赖。

基本信息
目录编号:
68365
目录名称:
RASSVET-3 6
国际标识:
2026-061F
轨道中心:
EARTH
卫星名称:
RASSVET-3 6
卫星全名:
RASSVET-3 6
卫星状态:
在轨 (已飞行84 天)
发射日期:
2026-03-23 UTC
国别 :
俄罗斯(独联体) (CIS)
星等 :
--
轨道信息
数据来源 国际轨道数据
星历时间: 2026-06-15T05:02:03+0800
6小时前
查看轨道信息
半长轴: 6884.564km
偏心率: 0.0006695
轨道倾角: 82.294°
近地点辐角 355.871°
升交点赤经 16.912°
平近点角 4.247°
近地点: 501.817km
远地点: 511.037km
周期: 94.749分钟
每日圈数: 15.19806
详细信息
使用方式:
暂无
2D轨道图
3D轨道图
轨道高度分析图
轨道倾角分析图
轨道综合分析图
查看轨道综合分析图